Вернуться в каталог

PSLV R/B

АктивенHEO
NORAD 40270·ROCKET BODY·🇮🇳 India

Запущен Oct 15, 2014 с Satish Dhawan Space Centre

Loading…

Ближайшие Пролёты (ближайшие 24 часа)

TLE

СвежийSource: Space-Track

Эпоха: Sep 14, 2026, 09:06 UTC

1 40270U 14061B   26257.37975307  .00009960  00000-0  93818-3 0  9994
2 40270  17.7107 207.3190 5733904 137.8231 284.4934  4.48260101180971

Отслеживайте PSLV R/B в реальном времени с AllMySat

Download on the App Store